Time,TemperatureF,DewpointF,PressureIn,WindDirection,WindDirectionDegrees,WindSpeedMPH,WindSpeedGustMPH,Humidity,HourlyPrecipIn,Conditions,Clouds,dailyrainin,SoftwareType,DateUTC
2013-10-12 00:02:00,58.9,35.7,29.96,WSW,248,1.6,2.0,42,0.00,,,0.00,WUHU216HW,2013-10-12 07:02:00,
2013-10-12 00:07:00,58.9,35.2,29.96,WSW,248,1.3,1.8,41,0.00,,,0.00,WUHU216HW,2013-10-12 07:07:00,
2013-10-12 00:12:00,58.7,35.6,29.96,SSW,203,1.3,2.0,42,0.00,,,0.00,WUHU216HW,2013-10-12 07:12:00,
2013-10-12 00:17:00,58.5,35.4,29.96,ESE,113,1.1,2.0,42,0.00,,,0.00,WUHU216HW,2013-10-12 07:17:00,
2013-10-12 00:22:00,58.3,35.3,29.96,East,90,3.6,4.0,42,0.00,,,0.00,WUHU216HW,2013-10-12 07:22:00,
2013-10-12 00:27:00,58.1,35.1,29.96,ESE,113,5.8,5.8,42,0.00,,,0.00,WUHU216HW,2013-10-12 07:27:00,
2013-10-12 00:32:00,58.0,34.9,29.96,East,90,4.5,5.8,42,0.00,,,0.00,WUHU216HW,2013-10-12 07:32:00,
2013-10-12 00:37:00,57.8,35.4,29.96,East,90,2.7,5.8,43,0.00,,,0.00,WUHU216HW,2013-10-12 07:37:00,
2013-10-12 00:42:00,57.8,35.4,29.96,ENE,68,4.0,5.8,43,0.00,,,0.00,WUHU216HW,2013-10-12 07:42:00,
2013-10-12 00:47:00,57.6,35.2,29.96,ESE,113,3.8,5.6,43,0.00,,,0.00,WUHU216HW,2013-10-12 07:47:00,
2013-10-12 00:52:00,57.6,35.2,29.96,East,90,3.1,5.6,43,0.00,,,0.00,WUHU216HW,2013-10-12 07:52:00,
2013-10-12 00:57:00,57.4,35.0,29.96,ESE,113,3.4,5.4,43,0.00,,,0.00,WUHU216HW,2013-10-12 07:57:00,
2013-10-12 01:02:00,57.2,34.8,29.96,ENE,68,2.2,5.4,43,0.00,,,0.00,WUHU216HW,2013-10-12 08:02:00,
2013-10-12 01:07:00,57.2,34.8,29.96,ENE,68,3.1,4.5,43,0.00,,,0.00,WUHU216HW,2013-10-12 08:07:00,
2013-10-12 01:12:00,57.2,34.8,29.96,ESE,113,4.3,4.7,43,0.00,,,0.00,WUHU216HW,2013-10-12 08:12:00,
2013-10-12 01:17:00,57.1,34.7,29.95,ESE,113,3.1,4.7,43,0.00,,,0.00,WUHU216HW,2013-10-12 08:17:00,
2013-10-12 01:22:00,56.9,35.1,29.95,East,90,2.0,4.7,44,0.00,,,0.00,WUHU216HW,2013-10-12 08:22:00,
2013-10-12 01:27:00,56.9,35.1,29.95,ESE,113,4.3,4.7,44,0.00,,,0.00,WUHU216HW,2013-10-12 08:27:00,
2013-10-12 01:32:00,56.7,34.9,29.95,SE,135,2.2,4.7,44,0.00,,,0.00,WUHU216HW,2013-10-12 08:32:00,
2013-10-12 01:37:00,56.7,34.9,29.95,ESE,113,4.7,4.7,44,0.00,,,0.00,WUHU216HW,2013-10-12 08:37:00,
2013-10-12 01:42:00,56.5,34.7,29.95,East,90,3.6,5.6,44,0.00,,,0.00,WUHU216HW,2013-10-12 08:42:00,
2013-10-12 01:47:00,56.5,34.7,29.95,East,90,3.8,5.6,44,0.00,,,0.00,WUHU216HW,2013-10-12 08:47:00,
2013-10-12 01:52:00,56.3,34.6,29.95,ENE,68,3.4,5.6,44,0.00,,,0.00,WUHU216HW,2013-10-12 08:52:00,
2013-10-12 01:57:00,56.3,34.6,29.95,ESE,113,5.6,5.6,44,0.00,,,0.00,WUHU216HW,2013-10-12 08:57:00,
2013-10-12 02:02:00,56.2,34.4,29.95,ESE,113,5.4,6.3,44,0.00,,,0.00,WUHU216HW,2013-10-12 09:02:00,
2013-10-12 02:07:00,56.2,34.4,29.94,East,90,4.0,7.4,44,0.00,,,0.00,WUHU216HW,2013-10-12 09:07:00,
2013-10-12 02:12:00,56.0,34.8,29.94,East,90,4.7,7.4,45,0.00,,,0.00,WUHU216HW,2013-10-12 09:12:00,
2013-10-12 02:17:00,55.8,34.7,29.94,ENE,68,4.7,6.3,45,0.00,,,0.00,WUHU216HW,2013-10-12 09:17:00,
2013-10-12 02:22:00,55.8,34.7,29.94,ESE,113,4.9,6.3,45,0.00,,,0.00,WUHU216HW,2013-10-12 09:22:00,
2013-10-12 02:27:00,55.8,34.7,29.94,East,90,3.8,6.3,45,0.00,,,0.00,WUHU216HW,2013-10-12 09:27:00,
2013-10-12 02:32:00,55.8,34.7,29.94,ESE,113,2.9,6.3,45,0.00,,,0.00,WUHU216HW,2013-10-12 09:32:00,
2013-10-12 02:37:00,55.6,34.5,29.94,ESE,113,5.1,5.4,45,0.00,,,0.00,WUHU216HW,2013-10-12 09:37:00,
2013-10-12 02:42:00,55.6,34.5,29.94,ESE,113,4.0,5.4,45,0.00,,,0.00,WUHU216HW,2013-10-12 09:42:00,
2013-10-12 02:47:00,55.6,34.5,29.94,ESE,113,2.9,5.4,45,0.00,,,0.00,WUHU216HW,2013-10-12 09:47:00,
2013-10-12 02:52:00,55.4,34.3,29.94,East,90,2.5,4.9,45,0.00,,,0.00,WUHU216HW,2013-10-12 09:52:00,
2013-10-12 02:57:00,55.4,34.3,29.93,East,90,3.4,4.7,45,0.00,,,0.00,WUHU216HW,2013-10-12 09:57:00,
2013-10-12 03:02:00,55.3,34.1,29.93,ESE,113,2.9,4.5,45,0.00,,,0.00,WUHU216HW,2013-10-12 10:02:00,
2013-10-12 03:07:00,55.1,33.9,29.93,East,90,2.5,4.0,45,0.00,,,0.00,WUHU216HW,2013-10-12 10:07:00,
2013-10-12 03:12:00,55.1,33.9,29.93,East,90,2.9,3.6,45,0.00,,,0.00,WUHU216HW,2013-10-12 10:12:00,
2013-10-12 03:17:00,55.1,34.6,29.93,ENE,68,2.5,3.4,46,0.00,,,0.00,WUHU216HW,2013-10-12 10:17:00,
2013-10-12 03:22:00,55.1,34.6,29.93,East,90,2.5,3.1,46,0.00,,,0.00,WUHU216HW,2013-10-12 10:22:00,
2013-10-12 03:27:00,54.9,34.4,29.93,ENE,68,2.7,3.1,46,0.00,,,0.00,WUHU216HW,2013-10-12 10:27:00,
2013-10-12 03:32:00,55.1,34.6,29.93,ESE,113,1.8,3.1,46,0.00,,,0.00,WUHU216HW,2013-10-12 10:32:00,
2013-10-12 03:37:00,55.1,34.6,29.93,ENE,68,2.0,3.1,46,0.00,,,0.00,WUHU216HW,2013-10-12 10:37:00,
2013-10-12 03:42:00,54.9,34.4,29.93,East,90,1.3,3.4,46,0.00,,,0.00,WUHU216HW,2013-10-12 10:42:00,
2013-10-12 03:47:00,55.1,34.6,29.93,ENE,68,2.0,3.4,46,0.00,,,0.00,WUHU216HW,2013-10-12 10:47:00,
2013-10-12 03:52:00,55.1,34.6,29.93,ENE,68,1.8,2.5,46,0.00,,,0.00,WUHU216HW,2013-10-12 10:52:00,
2013-10-12 03:57:00,55.3,34.7,29.93,ENE,68,1.6,2.2,46,0.00,,,0.00,WUHU216HW,2013-10-12 10:57:00,
2013-10-12 04:02:00,55.3,34.7,29.93,ENE,68,1.1,1.8,46,0.00,,,0.00,WUHU216HW,2013-10-12 11:02:00,
2013-10-12 04:07:00,55.4,34.8,29.93,ENE,68,1.1,1.8,46,0.00,,,0.00,WUHU216HW,2013-10-12 11:07:00,
2013-10-12 04:12:00,55.4,34.8,29.93,ENE,68,1.6,1.8,46,0.00,,,0.00,WUHU216HW,2013-10-12 11:12:00,
2013-10-12 04:17:00,55.4,34.8,29.93,NE,45,1.6,2.0,46,0.00,,,0.00,WUHU216HW,2013-10-12 11:17:00,
2013-10-12 04:22:00,55.6,35.0,29.93,ENE,68,1.8,2.0,46,0.00,,,0.00,WUHU216HW,2013-10-12 11:22:00,
2013-10-12 04:27:00,55.4,34.8,29.93,ENE,68,3.1,3.4,46,0.00,,,0.00,WUHU216HW,2013-10-12 11:27:00,
2013-10-12 04:32:00,55.8,35.2,29.93,East,90,2.0,3.4,46,0.00,,,0.00,WUHU216HW,2013-10-12 11:32:00,
2013-10-12 04:37:00,55.8,35.2,29.93,East,90,1.8,3.1,46,0.00,,,0.00,WUHU216HW,2013-10-12 11:37:00,
2013-10-12 04:42:00,55.6,35.0,29.93,ENE,68,1.8,2.2,46,0.00,,,0.00,WUHU216HW,2013-10-12 11:42:00,
2013-10-12 04:47:00,55.6,35.0,29.93,ENE,68,1.6,2.2,46,0.00,,,0.00,WUHU216HW,2013-10-12 11:47:00,
2013-10-12 04:52:00,55.4,34.8,29.93,ENE,68,1.8,2.2,46,0.00,,,0.00,WUHU216HW,2013-10-12 11:52:00,
2013-10-12 04:57:00,55.4,34.8,29.93,South,180,3.8,3.8,46,0.00,,,0.00,WUHU216HW,2013-10-12 11:57:00,
2013-10-12 05:02:00,55.3,34.7,29.93,SE,135,2.0,3.8,46,0.00,,,0.00,WUHU216HW,2013-10-12 12:02:00,
2013-10-12 05:07:00,54.9,34.4,29.93,East,90,3.4,4.7,46,0.00,,,0.00,WUHU216HW,2013-10-12 12:07:00,
2013-10-12 05:12:00,54.4,33.8,29.93,ESE,113,4.3,5.1,46,0.00,,,0.00,WUHU216HW,2013-10-12 12:12:00,
2013-10-12 05:17:00,53.8,33.4,29.93,ESE,113,6.0,6.9,46,0.00,,,0.00,WUHU216HW,2013-10-12 12:17:00,
2013-10-12 05:22:00,53.5,33.7,29.93,ESE,113,3.6,6.9,47,0.00,,,0.00,WUHU216HW,2013-10-12 12:22:00,
2013-10-12 05:27:00,53.3,33.5,29.93,ESE,113,4.7,6.0,47,0.00,,,0.00,WUHU216HW,2013-10-12 12:27:00,
2013-10-12 05:32:00,52.9,33.7,29.93,East,90,3.4,5.4,48,0.00,,,0.00,WUHU216HW,2013-10-12 12:32:00,
2013-10-12 05:37:00,52.9,33.7,29.93,ENE,68,3.1,5.1,48,0.00,,,0.00,WUHU216HW,2013-10-12 12:37:00,
2013-10-12 05:42:00,52.9,33.7,29.93,ENE,68,3.4,5.1,48,0.00,,,0.00,WUHU216HW,2013-10-12 12:42:00,
2013-10-12 05:47:00,52.9,33.7,29.93,ENE,68,3.4,4.7,48,0.00,,,0.00,WUHU216HW,2013-10-12 12:47:00,
2013-10-12 05:52:00,52.9,33.7,29.93,NE,45,2.9,4.7,48,0.00,,,0.00,WUHU216HW,2013-10-12 12:52:00,
2013-10-12 05:57:00,53.1,33.8,29.93,ENE,68,2.5,4.7,48,0.00,,,0.00,WUHU216HW,2013-10-12 12:57:00,
2013-10-12 06:02:00,53.1,33.8,29.93,NE,45,3.6,4.7,48,0.00,,,0.00,WUHU216HW,2013-10-12 13:02:00,
2013-10-12 06:07:00,53.5,34.2,29.93,ENE,68,2.2,4.5,48,0.00,,,0.00,WUHU216HW,2013-10-12 13:07:00,
2013-10-12 06:12:00,53.5,34.2,29.93,ESE,113,2.0,4.5,48,0.00,,,0.00,WUHU216HW,2013-10-12 13:12:00,
2013-10-12 06:17:00,53.3,34.0,29.93,SE,135,1.8,3.4,48,0.00,,,0.00,WUHU216HW,2013-10-12 13:17:00,
2013-10-12 06:22:00,52.9,33.7,29.93,SE,135,2.2,3.4,48,0.00,,,0.00,WUHU216HW,2013-10-12 13:22:00,
2013-10-12 06:27:00,52.9,33.7,29.93,ESE,113,1.8,2.5,48,0.00,,,0.00,WUHU216HW,2013-10-12 13:27:00,
2013-10-12 06:32:00,52.9,33.7,29.93,SE,135,1.8,2.5,48,0.00,,,0.00,WUHU216HW,2013-10-12 13:32:00,
2013-10-12 06:37:00,52.9,33.7,29.93,ESE,113,0.2,2.0,48,0.00,,,0.00,WUHU216HW,2013-10-12 13:37:00,
2013-10-12 06:42:00,52.9,33.7,29.94,ESE,113,0.4,2.0,48,0.00,,,0.00,WUHU216HW,2013-10-12 13:42:00,
2013-10-12 06:47:00,53.1,33.8,29.94,South,180,0.4,1.6,48,0.00,,,0.00,WUHU216HW,2013-10-12 13:47:00,
2013-10-12 06:52:00,52.9,34.3,29.94,East,90,1.1,1.6,49,0.00,,,0.00,WUHU216HW,2013-10-12 13:52:00,
2013-10-12 06:57:00,53.1,34.4,29.94,East,90,1.8,1.8,49,0.00,,,0.00,WUHU216HW,2013-10-12 13:57:00,
2013-10-12 07:02:00,53.3,34.6,29.95,ESE,113,1.1,1.8,49,0.00,,,0.00,WUHU216HW,2013-10-12 14:02:00,
2013-10-12 07:07:00,53.5,34.7,29.95,ESE,113,2.7,2.7,49,0.00,,,0.00,WUHU216HW,2013-10-12 14:07:00,
2013-10-12 07:12:00,53.5,34.7,29.94,ESE,113,2.5,2.7,49,0.00,,,0.00,WUHU216HW,2013-10-12 14:12:00,
2013-10-12 07:17:00,53.6,34.9,29.95,SE,135,4.0,4.0,49,0.00,,,0.00,WUHU216HW,2013-10-12 14:17:00,
2013-10-12 07:22:00,53.8,35.1,29.95,ESE,113,3.4,4.0,49,0.00,,,0.00,WUHU216HW,2013-10-12 14:22:00,
2013-10-12 07:27:00,54.0,35.2,29.95,ESE,113,2.7,4.0,49,0.00,,,0.00,WUHU216HW,2013-10-12 14:27:00,
2013-10-12 07:32:00,54.2,35.4,29.95,East,90,2.7,4.3,49,0.00,,,0.00,WUHU216HW,2013-10-12 14:32:00,
2013-10-12 07:37:00,54.4,35.6,29.95,East,90,2.5,4.3,49,0.00,,,0.00,WUHU216HW,2013-10-12 14:37:00,
2013-10-12 07:42:00,54.7,35.9,29.95,East,90,2.5,4.7,49,0.00,,,0.00,WUHU216HW,2013-10-12 14:42:00,
2013-10-12 07:47:00,55.1,36.2,29.95,SE,135,2.5,4.7,49,0.00,,,0.00,WUHU216HW,2013-10-12 14:47:00,
2013-10-12 07:52:00,55.6,36.7,29.96,ESE,113,4.0,4.3,49,0.00,,,0.00,WUHU216HW,2013-10-12 14:52:00,
2013-10-12 07:57:00,55.8,36.4,29.96,ESE,113,2.7,5.8,48,0.00,,,0.00,WUHU216HW,2013-10-12 14:57:00,
2013-10-12 08:02:00,56.2,36.6,29.96,East,90,2.7,5.8,48,0.00,,,0.00,WUHU216HW,2013-10-12 15:02:00,
2013-10-12 08:07:00,56.5,37.0,29.96,ESE,113,3.4,6.0,48,0.00,,,0.00,WUHU216HW,2013-10-12 15:07:00,
2013-10-12 08:12:00,56.9,37.4,29.96,ESE,113,5.6,6.0,48,0.00,,,0.00,WUHU216HW,2013-10-12 15:12:00,
2013-10-12 08:17:00,57.2,37.7,29.96,ESE,113,3.1,5.6,48,0.00,,,0.00,WUHU216HW,2013-10-12 15:17:00,
2013-10-12 08:22:00,57.6,37.4,29.96,SE,135,4.7,6.9,47,0.00,,,0.00,WUHU216HW,2013-10-12 15:22:00,
2013-10-12 08:27:00,58.0,37.8,29.96,ESE,113,5.4,6.9,47,0.00,,,0.00,WUHU216HW,2013-10-12 15:27:00,
2013-10-12 08:32:00,58.1,37.4,29.96,SE,135,3.1,6.3,46,0.00,,,0.00,WUHU216HW,2013-10-12 15:32:00,
2013-10-12 08:37:00,58.5,37.7,29.96,ESE,113,5.4,6.9,46,0.00,,,0.00,WUHU216HW,2013-10-12 15:37:00,
2013-10-12 08:42:00,58.9,38.1,29.96,East,90,4.7,6.9,46,0.00,,,0.00,WUHU216HW,2013-10-12 15:42:00,
2013-10-12 08:47:00,59.4,38.5,29.96,ESE,113,4.9,6.5,46,0.00,,,0.00,WUHU216HW,2013-10-12 15:47:00,
2013-10-12 08:52:00,59.8,38.3,29.96,SE,135,5.4,6.3,45,0.00,,,0.00,WUHU216HW,2013-10-12 15:52:00,
2013-10-12 08:57:00,59.9,38.4,29.96,SE,135,1.8,6.3,45,0.00,,,0.00,WUHU216HW,2013-10-12 15:57:00,
2013-10-12 09:02:00,60.3,38.8,29.96,SE,135,4.7,6.3,45,0.00,,,0.00,WUHU216HW,2013-10-12 16:02:00,
2013-10-12 09:07:00,60.7,38.5,29.96,ESE,113,3.6,6.0,44,0.00,,,0.00,WUHU216HW,2013-10-12 16:07:00,
2013-10-12 09:12:00,61.0,38.8,29.96,SE,135,4.9,5.8,44,0.00,,,0.00,WUHU216HW,2013-10-12 16:12:00,
2013-10-12 09:17:00,61.6,39.3,29.96,SE,135,2.2,6.9,44,0.00,,,0.00,WUHU216HW,2013-10-12 16:17:00,
2013-10-12 09:22:00,61.7,38.9,29.96,SSW,203,2.2,6.9,43,0.00,,,0.00,WUHU216HW,2013-10-12 16:22:00,
2013-10-12 09:27:00,62.1,39.3,29.96,SE,135,4.3,6.3,43,0.00,,,0.00,WUHU216HW,2013-10-12 16:27:00,
2013-10-12 09:32:00,62.6,39.2,29.96,SE,135,1.3,6.3,42,0.00,,,0.00,WUHU216HW,2013-10-12 16:32:00,
2013-10-12 09:37:00,63.0,39.4,29.96,SE,135,4.7,6.0,42,0.00,,,0.00,WUHU216HW,2013-10-12 16:37:00,
2013-10-12 09:42:00,63.4,39.8,29.96,South,180,4.0,6.0,42,0.00,,,0.00,WUHU216HW,2013-10-12 16:42:00,
2013-10-12 09:47:00,63.9,39.7,29.96,SSE,158,4.0,5.4,41,0.00,,,0.00,WUHU216HW,2013-10-12 16:47:00,
2013-10-12 09:52:00,64.4,40.1,29.95,SE,135,2.5,5.4,41,0.00,,,0.00,WUHU216HW,2013-10-12 16:52:00,
2013-10-12 09:57:00,64.8,40.0,29.95,SSE,158,2.5,6.5,40,0.00,,,0.00,WUHU216HW,2013-10-12 16:57:00,
2013-10-12 10:02:00,65.5,40.6,29.95,SSE,158,1.8,6.5,40,0.00,,,0.00,WUHU216HW,2013-10-12 17:02:00,
2013-10-12 10:07:00,65.9,40.9,29.95,SE,135,2.7,6.3,40,0.00,,,0.00,WUHU216HW,2013-10-12 17:07:00,
2013-10-12 10:12:00,66.6,40.9,29.95,SSE,158,4.7,5.6,39,0.00,,,0.00,WUHU216HW,2013-10-12 17:12:00,
2013-10-12 10:17:00,67.0,41.1,29.95,SE,135,3.8,5.6,39,0.00,,,0.00,WUHU216HW,2013-10-12 17:17:00,
2013-10-12 10:22:00,67.7,41.8,29.95,SSW,203,4.0,5.4,39,0.00,,,0.00,WUHU216HW,2013-10-12 17:22:00,
2013-10-12 10:27:00,68.2,41.5,29.95,South,180,4.7,6.3,38,0.00,,,0.00,WUHU216HW,2013-10-12 17:27:00,
2013-10-12 10:32:00,69.1,42.3,29.95,SE,135,5.1,6.5,38,0.00,,,0.00,WUHU216HW,2013-10-12 17:32:00,
2013-10-12 10:37:00,69.7,42.1,29.95,SSW,203,6.9,6.9,37,0.00,,,0.00,WUHU216HW,2013-10-12 17:37:00,
2013-10-12 10:42:00,70.2,42.6,29.95,SSW,203,5.6,6.9,37,0.00,,,0.00,WUHU216HW,2013-10-12 17:42:00,
2013-10-12 10:47:00,70.9,41.8,29.95,South,180,3.6,7.4,35,0.00,,,0.00,WUHU216HW,2013-10-12 17:47:00,
2013-10-12 10:52:00,71.6,42.4,29.95,SSE,158,7.4,7.4,35,0.00,,,0.00,WUHU216HW,2013-10-12 17:52:00,
2013-10-12 10:57:00,72.4,42.3,29.95,ESE,113,5.4,8.3,34,0.00,,,0.00,WUHU216HW,2013-10-12 17:57:00,
2013-10-12 11:02:00,73.1,42.1,29.95,South,180,6.5,8.3,33,0.00,,,0.00,WUHU216HW,2013-10-12 18:02:00,
2013-10-12 11:07:00,73.8,42.8,29.95,SE,135,9.2,9.2,33,0.00,,,0.00,WUHU216HW,2013-10-12 18:07:00,
2013-10-12 11:12:00,74.3,42.5,29.95,ESE,113,3.6,9.2,32,0.00,,,0.00,WUHU216HW,2013-10-12 18:12:00,
2013-10-12 11:17:00,75.1,42.4,29.95,SSE,158,7.6,9.2,31,0.00,,,0.00,WUHU216HW,2013-10-12 18:17:00,
2013-10-12 11:22:00,75.4,42.7,29.95,SE,135,6.3,8.5,31,0.00,,,0.00,WUHU216HW,2013-10-12 18:22:00,
2013-10-12 11:27:00,76.0,42.4,29.95,SE,135,6.9,8.1,30,0.00,,,0.00,WUHU216HW,2013-10-12 18:27:00,
2013-10-12 11:32:00,76.1,42.6,29.95,SE,135,2.5,8.1,30,0.00,,,0.00,WUHU216HW,2013-10-12 18:32:00,
2013-10-12 11:37:00,76.7,42.0,29.95,ENE,68,3.1,7.6,29,0.00,,,0.00,WUHU216HW,2013-10-12 18:37:00,
2013-10-12 11:42:00,77.2,41.4,29.94,ESE,113,8.5,8.5,28,0.00,,,0.00,WUHU216HW,2013-10-12 18:42:00,
2013-10-12 11:47:00,77.8,40.9,29.94,ESE,113,6.3,8.5,27,0.00,,,0.00,WUHU216HW,2013-10-12 18:47:00,
2013-10-12 11:52:00,77.8,41.9,29.94,SE,135,2.0,8.5,28,0.00,,,0.00,WUHU216HW,2013-10-12 18:52:00,
2013-10-12 11:57:00,78.1,41.1,29.94,ESE,113,5.6,6.7,27,0.00,,,0.00,WUHU216HW,2013-10-12 18:57:00,
2013-10-12 12:02:00,78.5,40.3,29.93,SSW,203,3.1,6.7,26,0.00,,,0.00,WUHU216HW,2013-10-12 19:02:00,
2013-10-12 12:07:00,78.8,40.7,29.93,South,180,4.5,6.3,26,0.00,,,0.00,WUHU216HW,2013-10-12 19:07:00,
2013-10-12 12:12:00,79.4,41.1,29.93,SSW,203,4.7,6.7,26,0.00,,,0.00,WUHU216HW,2013-10-12 19:12:00,
2013-10-12 12:17:00,79.6,39.3,29.93,SW,225,2.2,6.7,24,0.00,,,0.00,WUHU216HW,2013-10-12 19:17:00,
2013-10-12 12:22:00,79.7,40.4,29.93,SE,135,2.7,6.3,25,0.00,,,0.00,WUHU216HW,2013-10-12 19:22:00,
2013-10-12 12:27:00,80.3,40.9,29.93,WSW,248,4.0,7.2,25,0.00,,,0.00,WUHU216HW,2013-10-12 19:27:00,
2013-10-12 12:32:00,80.6,40.1,29.93,WSW,248,7.8,9.2,24,0.00,,,0.00,WUHU216HW,2013-10-12 19:32:00,
2013-10-12 12:37:00,80.6,39.2,29.93,WSW,248,4.7,9.2,23,0.00,,,0.00,WUHU216HW,2013-10-12 19:37:00,
2013-10-12 12:42:00,80.3,38.8,29.92,SW,225,3.6,11.0,23,0.00,,,0.00,WUHU216HW,2013-10-12 19:42:00,
2013-10-12 12:47:00,80.6,40.1,29.92,SSW,203,5.6,11.0,24,0.00,,,0.00,WUHU216HW,2013-10-12 19:47:00,
2013-10-12 12:52:00,81.2,40.6,29.92,SE,135,2.7,9.2,24,0.00,,,0.00,WUHU216HW,2013-10-12 19:52:00,
2013-10-12 12:57:00,81.7,41.0,29.92,SSW,203,4.7,8.3,24,0.00,,,0.00,WUHU216HW,2013-10-12 19:57:00,
2013-10-12 13:02:00,82.3,40.4,29.92,South,180,5.8,11.2,23,0.00,,,0.00,WUHU216HW,2013-10-12 20:02:00,
2013-10-12 13:07:00,82.8,40.9,29.92,SSE,158,6.3,11.2,23,0.00,,,0.00,WUHU216HW,2013-10-12 20:07:00,
2013-10-12 13:12:00,83.5,41.5,29.91,SSW,203,5.6,11.2,23,0.00,,,0.00,WUHU216HW,2013-10-12 20:12:00,
2013-10-12 13:17:00,83.7,40.6,29.91,South,180,11.2,11.2,22,0.00,,,0.00,WUHU216HW,2013-10-12 20:17:00,
2013-10-12 13:22:00,83.9,40.7,29.91,SSW,203,6.5,11.2,22,0.00,,,0.00,WUHU216HW,2013-10-12 20:22:00,
2013-10-12 13:27:00,83.9,40.7,29.91,SW,225,5.6,11.2,22,0.00,,,0.00,WUHU216HW,2013-10-12 20:27:00,
2013-10-12 13:32:00,84.2,41.1,29.91,SE,135,6.3,9.8,22,0.00,,,0.00,WUHU216HW,2013-10-12 20:32:00,
2013-10-12 13:37:00,84.4,41.1,29.91,SSE,158,3.8,8.9,22,0.00,,,0.00,WUHU216HW,2013-10-12 20:37:00,
2013-10-12 13:42:00,85.0,41.6,29.91,SE,135,7.6,9.2,22,0.00,,,0.00,WUHU216HW,2013-10-12 20:42:00,
2013-10-12 13:47:00,85.5,41.0,29.91,ESE,113,3.8,9.2,21,0.00,,,0.00,WUHU216HW,2013-10-12 20:47:00,
2013-10-12 13:52:00,86.0,41.4,29.91,SE,135,3.4,8.7,21,0.00,,,0.00,WUHU216HW,2013-10-12 20:52:00,
2013-10-12 13:57:00,86.4,41.8,29.91,South,180,5.4,8.7,21,0.00,,,0.00,WUHU216HW,2013-10-12 20:57:00,
2013-10-12 14:02:00,86.8,39.2,29.91,South,180,0.4,8.3,19,0.00,,,0.00,WUHU216HW,2013-10-12 21:02:00,
2013-10-12 14:07:00,86.9,39.4,29.91,SSW,203,5.1,6.5,19,0.00,,,0.00,WUHU216HW,2013-10-12 21:07:00,
2013-10-12 14:12:00,86.8,37.5,29.91,South,180,9.8,10.3,18,0.00,,,0.00,WUHU216HW,2013-10-12 21:12:00,
2013-10-12 14:17:00,86.8,39.2,29.91,SSW,203,2.0,10.3,19,0.00,,,0.00,WUHU216HW,2013-10-12 21:17:00,
2013-10-12 14:22:00,87.1,39.6,29.91,ESE,113,1.3,9.8,19,0.00,,,0.00,WUHU216HW,2013-10-12 21:22:00,
2013-10-12 14:27:00,87.1,37.9,29.91,WSW,248,5.1,6.9,18,0.00,,,0.00,WUHU216HW,2013-10-12 21:27:00,
2013-10-12 14:32:00,86.8,37.5,29.91,ENE,68,1.3,8.1,18,0.00,,,0.00,WUHU216HW,2013-10-12 21:32:00,
2013-10-12 14:37:00,86.8,37.5,29.90,NW,315,1.1,8.1,18,0.00,,,0.00,WUHU216HW,2013-10-12 21:37:00,
2013-10-12 14:42:00,86.0,35.2,29.90,West,270,7.8,7.8,17,0.00,,,0.00,WUHU216HW,2013-10-12 21:42:00,
2013-10-12 14:47:00,85.5,36.5,29.90,West,270,4.3,8.1,18,0.00,,,0.00,WUHU216HW,2013-10-12 21:47:00,
2013-10-12 14:52:00,85.9,36.7,29.90,SSW,203,2.5,8.1,18,0.00,,,0.00,WUHU216HW,2013-10-12 21:52:00,
2013-10-12 14:57:00,86.2,37.1,29.90,SE,135,1.1,6.3,18,0.00,,,0.00,WUHU216HW,2013-10-12 21:57:00,
2013-10-12 15:02:00,86.8,37.5,29.90,SSW,203,1.8,3.6,18,0.00,,,0.00,WUHU216HW,2013-10-12 22:02:00,
2013-10-12 15:07:00,87.1,37.9,29.90,South,180,3.1,4.7,18,0.00,,,0.00,WUHU216HW,2013-10-12 22:07:00,
2013-10-12 15:12:00,87.7,38.4,29.90,NNW,338,0.7,4.7,18,0.00,,,0.00,WUHU216HW,2013-10-12 22:12:00,
2013-10-12 15:17:00,87.7,38.4,29.90,SW,225,4.5,4.5,18,0.00,,,0.00,WUHU216HW,2013-10-12 22:17:00,
2013-10-12 15:22:00,86.9,36.0,29.90,WSW,248,5.4,8.1,17,0.00,,,0.00,WUHU216HW,2013-10-12 22:22:00,
2013-10-12 15:27:00,86.6,37.4,29.90,SSW,203,3.4,8.1,18,0.00,,,0.00,WUHU216HW,2013-10-12 22:27:00,
2013-10-12 15:32:00,86.8,37.5,29.90,SSW,203,3.4,6.9,18,0.00,,,0.00,WUHU216HW,2013-10-12 22:32:00,
2013-10-12 15:37:00,86.6,35.6,29.90,SSE,158,2.5,8.3,17,0.00,,,0.00,WUHU216HW,2013-10-12 22:37:00,
2013-10-12 15:42:00,86.8,37.5,29.90,SE,135,3.1,8.3,18,0.00,,,0.00,WUHU216HW,2013-10-12 22:42:00,
2013-10-12 15:47:00,87.3,38.0,29.90,West,270,3.4,4.7,18,0.00,,,0.00,WUHU216HW,2013-10-12 22:47:00,
2013-10-12 15:52:00,87.3,36.3,29.90,WSW,248,6.0,8.5,17,0.00,,,0.00,WUHU216HW,2013-10-12 22:52:00,
2013-10-12 15:57:00,86.8,35.8,29.90,NW,315,4.7,8.5,17,0.00,,,0.00,WUHU216HW,2013-10-12 22:57:00,
2013-10-12 16:02:00,86.4,37.3,29.90,SW,225,5.6,6.9,18,0.00,,,0.00,WUHU216HW,2013-10-12 23:02:00,
2013-10-12 16:07:00,86.6,35.6,29.90,SW,225,7.4,8.5,17,0.00,,,0.00,WUHU216HW,2013-10-12 23:07:00,
2013-10-12 16:12:00,86.4,37.3,29.90,WSW,248,4.0,8.5,18,0.00,,,0.00,WUHU216HW,2013-10-12 23:12:00,
2013-10-12 16:17:00,86.2,35.4,29.90,West,270,4.9,7.6,17,0.00,,,0.00,WUHU216HW,2013-10-12 23:17:00,
2013-10-12 16:22:00,85.7,36.6,29.90,SW,225,4.0,6.9,18,0.00,,,0.00,WUHU216HW,2013-10-12 23:22:00,
2013-10-12 16:27:00,85.9,36.7,29.91,SW,225,4.7,8.1,18,0.00,,,0.00,WUHU216HW,2013-10-12 23:27:00,
2013-10-12 16:32:00,86.0,36.9,29.90,NNW,338,2.5,8.1,18,0.00,,,0.00,WUHU216HW,2013-10-12 23:32:00,
2013-10-12 16:37:00,85.9,36.7,29.91,West,270,3.1,5.1,18,0.00,,,0.00,WUHU216HW,2013-10-12 23:37:00,
2013-10-12 16:42:00,85.9,36.7,29.91,WSW,248,6.7,7.6,18,0.00,,,0.00,WUHU216HW,2013-10-12 23:42:00,
2013-10-12 16:47:00,85.3,36.4,29.91,South,180,5.4,7.8,18,0.00,,,0.00,WUHU216HW,2013-10-12 23:47:00,
2013-10-12 16:52:00,85.7,36.6,29.91,NNE,23,1.1,7.8,18,0.00,,,0.00,WUHU216HW,2013-10-12 23:52:00,
2013-10-12 16:57:00,85.3,36.4,29.91,WNW,293,1.8,5.4,18,0.00,,,0.00,WUHU216HW,2013-10-12 23:57:00,
2013-10-12 17:02:00,85.0,36.0,29.91,SSW,203,4.0,7.4,18,0.00,,,0.00,WUHU216HW,2013-10-13 00:02:00,
2013-10-12 17:07:00,85.0,37.7,29.91,WSW,248,1.1,7.4,19,0.00,,,0.00,WUHU216HW,2013-10-13 00:07:00,
2013-10-12 17:12:00,84.6,37.4,29.91,West,270,1.1,4.0,19,0.00,,,0.00,WUHU216HW,2013-10-13 00:12:00,
2013-10-12 17:17:00,84.2,35.5,29.90,SW,225,4.7,4.7,18,0.00,,,0.00,WUHU216HW,2013-10-13 00:17:00,
2013-10-12 17:22:00,83.7,36.7,29.92,West,270,3.1,4.7,19,0.00,,,0.00,WUHU216HW,2013-10-13 00:22:00,
2013-10-12 17:27:00,83.2,36.4,29.93,WSW,248,4.7,9.6,19,0.00,,,0.00,WUHU216HW,2013-10-13 00:27:00,
2013-10-12 17:32:00,82.4,35.7,29.93,West,270,7.6,9.6,19,0.00,,,0.00,WUHU216HW,2013-10-13 00:32:00,
2013-10-12 17:37:00,81.7,36.9,29.93,West,270,4.7,8.5,20,0.00,,,0.00,WUHU216HW,2013-10-13 00:37:00,
2013-10-12 17:42:00,81.0,37.4,29.92,NNW,338,6.5,7.6,21,0.00,,,0.00,WUHU216HW,2013-10-13 00:42:00,
2013-10-12 17:47:00,80.3,36.7,29.92,WNW,293,6.3,7.6,21,0.00,,,0.00,WUHU216HW,2013-10-13 00:47:00,
2013-10-12 17:52:00,79.6,36.1,29.92,NW,315,2.7,7.6,21,0.00,,,0.00,WUHU216HW,2013-10-13 00:52:00,
2013-10-12 17:57:00,79.2,36.8,29.92,NNW,338,3.4,6.3,22,0.00,,,0.00,WUHU216HW,2013-10-13 00:57:00,
2013-10-12 18:02:00,78.7,36.4,29.92,West,270,4.0,4.7,22,0.00,,,0.00,WUHU216HW,2013-10-13 01:02:00,
2013-10-12 18:07:00,78.1,35.9,29.92,WNW,293,2.5,4.7,22,0.00,,,0.00,WUHU216HW,2013-10-13 01:07:00,
2013-10-12 18:12:00,77.6,35.5,29.91,NNW,338,3.4,5.1,22,0.00,,,0.00,WUHU216HW,2013-10-13 01:12:00,
2013-10-12 18:17:00,77.2,36.2,29.91,WNW,293,2.9,5.1,23,0.00,,,0.00,WUHU216HW,2013-10-13 01:17:00,
2013-10-12 18:22:00,76.9,35.9,29.91,NNW,338,2.7,4.5,23,0.00,,,0.00,WUHU216HW,2013-10-13 01:22:00,
2013-10-12 18:27:00,76.5,35.7,29.91,NNW,338,5.4,5.4,23,0.00,,,0.00,WUHU216HW,2013-10-13 01:27:00,
2013-10-12 18:32:00,76.3,35.5,29.92,WNW,293,3.6,6.3,23,0.00,,,0.00,WUHU216HW,2013-10-13 01:32:00,
2013-10-12 18:37:00,76.0,35.2,29.92,WNW,293,5.4,6.9,23,0.00,,,0.00,WUHU216HW,2013-10-13 01:37:00,
2013-10-12 18:42:00,75.8,36.1,29.92,NW,315,4.3,6.9,24,0.00,,,0.00,WUHU216HW,2013-10-13 01:42:00,
2013-10-12 18:47:00,75.6,35.9,29.92,NW,315,4.0,6.5,24,0.00,,,0.00,WUHU216HW,2013-10-13 01:47:00,
2013-10-12 18:52:00,75.4,35.7,29.92,NNW,338,3.4,4.7,24,0.00,,,0.00,WUHU216HW,2013-10-13 01:52:00,
2013-10-12 18:57:00,75.2,35.7,29.92,NNW,338,1.8,4.7,24,0.00,,,0.00,WUHU216HW,2013-10-13 01:57:00,
2013-10-12 19:02:00,75.1,35.5,29.92,North,0,1.8,4.7,24,0.00,,,0.00,WUHU216HW,2013-10-13 02:02:00,
2013-10-12 19:07:00,74.9,35.3,29.93,NNW,338,1.3,3.8,24,0.00,,,0.00,WUHU216HW,2013-10-13 02:07:00,
2013-10-12 19:12:00,74.7,35.2,29.93,NW,315,2.0,2.9,24,0.00,,,0.00,WUHU216HW,2013-10-13 02:12:00,
2013-10-12 19:17:00,74.3,34.8,29.93,North,0,2.0,3.8,24,0.00,,,0.00,WUHU216HW,2013-10-13 02:17:00,
2013-10-12 19:22:00,74.2,35.7,29.93,NNW,338,1.8,3.8,25,0.00,,,0.00,WUHU216HW,2013-10-13 02:22:00,
2013-10-12 19:27:00,74.0,35.6,29.93,NNW,338,2.0,2.2,25,0.00,,,0.00,WUHU216HW,2013-10-13 02:27:00,
2013-10-12 19:32:00,73.8,35.4,29.93,NNW,338,1.6,3.1,25,0.00,,,0.00,WUHU216HW,2013-10-13 02:32:00,
2013-10-12 19:37:00,73.4,35.1,29.93,NNW,338,3.1,3.4,25,0.00,,,0.00,WUHU216HW,2013-10-13 02:37:00,
2013-10-12 19:42:00,73.3,34.9,29.93,North,0,0.9,3.4,25,0.00,,,0.00,WUHU216HW,2013-10-13 02:42:00,
2013-10-12 19:47:00,73.1,34.8,29.93,NNW,338,1.8,3.4,25,0.00,,,0.00,WUHU216HW,2013-10-13 02:47:00,
2013-10-12 19:52:00,73.1,34.8,29.93,North,0,1.1,2.7,25,0.00,,,0.00,WUHU216HW,2013-10-13 02:52:00,
2013-10-12 19:57:00,72.9,34.7,29.93,NW,315,1.3,1.8,25,0.00,,,0.00,WUHU216HW,2013-10-13 02:57:00,
2013-10-12 20:02:00,72.7,35.5,29.93,NNW,338,1.6,2.2,26,0.00,,,0.00,WUHU216HW,2013-10-13 03:02:00,
2013-10-12 20:07:00,72.4,35.2,29.94,NNW,338,1.3,2.9,26,0.00,,,0.00,WUHU216HW,2013-10-13 03:07:00,
2013-10-12 20:12:00,71.8,34.7,29.94,North,0,1.1,2.9,26,0.00,,,0.00,WUHU216HW,2013-10-13 03:12:00,
2013-10-12 20:17:00,71.6,34.6,29.94,NW,315,1.3,2.5,26,0.00,,,0.00,WUHU216HW,2013-10-13 03:17:00,
2013-10-12 20:22:00,71.6,34.6,29.94,WNW,293,2.2,2.2,26,0.00,,,0.00,WUHU216HW,2013-10-13 03:22:00,
2013-10-12 20:27:00,71.5,34.5,29.95,West,270,1.8,2.2,26,0.00,,,0.00,WUHU216HW,2013-10-13 03:27:00,
2013-10-12 20:32:00,71.3,34.3,29.95,WSW,248,3.4,3.4,26,0.00,,,0.00,WUHU216HW,2013-10-13 03:32:00,
2013-10-12 20:37:00,70.7,35.8,29.95,West,270,1.6,3.4,28,0.00,,,0.00,WUHU216HW,2013-10-13 03:37:00,
2013-10-12 20:42:00,70.4,35.6,29.95,NW,315,1.8,3.4,28,0.00,,,0.00,WUHU216HW,2013-10-13 03:42:00,
2013-10-12 20:47:00,70.2,35.4,29.95,NNW,338,1.3,2.5,28,0.00,,,0.00,WUHU216HW,2013-10-13 03:47:00,
2013-10-12 20:52:00,70.2,35.4,29.95,North,0,1.6,2.2,28,0.00,,,0.00,WUHU216HW,2013-10-13 03:52:00,
2013-10-12 20:57:00,70.0,35.2,29.95,NNW,338,1.6,2.2,28,0.00,,,0.00,WUHU216HW,2013-10-13 03:57:00,
2013-10-12 21:01:00,70.2,35.4,29.95,North,0,2.2,2.9,28,0.00,,,0.00,WUHU216HW,2013-10-13 04:01:00,
2013-10-12 21:02:00,70.2,35.4,29.95,North,0,2.0,2.9,28,0.00,,,0.00,WUHU216HW,2013-10-13 04:02:00,
2013-10-12 21:07:00,70.6,35.7,29.95,North,0,2.5,2.9,28,0.00,,,0.00,WUHU216HW,2013-10-13 04:07:00,
2013-10-12 21:12:00,70.9,36.0,29.96,North,0,1.8,2.9,28,0.00,,,0.00,WUHU216HW,2013-10-13 04:12:00,
2013-10-12 21:17:00,70.9,36.0,29.96,NNW,338,1.6,2.5,28,0.00,,,0.00,WUHU216HW,2013-10-13 04:17:00,
2013-10-12 21:22:00,70.9,36.0,29.96,NNW,338,1.1,2.0,28,0.00,,,0.00,WUHU216HW,2013-10-13 04:22:00,
2013-10-12 21:27:00,70.9,36.0,29.96,NNW,338,2.0,2.2,28,0.00,,,0.00,WUHU216HW,2013-10-13 04:27:00,
2013-10-12 21:32:00,70.9,36.0,29.96,NNW,338,1.1,2.2,28,0.00,,,0.00,WUHU216HW,2013-10-13 04:32:00,
2013-10-12 21:37:00,70.9,36.0,29.96,NW,315,0.7,2.0,28,0.00,,,0.00,WUHU216HW,2013-10-13 04:37:00,
2013-10-12 21:42:00,70.7,35.8,29.96,NNW,338,1.1,1.8,28,0.00,,,0.00,WUHU216HW,2013-10-13 04:42:00,
2013-10-12 21:47:00,70.6,35.7,29.96,NNW,338,1.3,2.2,28,0.00,,,0.00,WUHU216HW,2013-10-13 04:47:00,
2013-10-12 21:52:00,70.6,35.7,29.96,NNW,338,1.1,2.2,28,0.00,,,0.00,WUHU216HW,2013-10-13 04:52:00,
2013-10-12 21:57:00,70.4,35.6,29.96,NNW,338,1.1,1.8,28,0.00,,,0.00,WUHU216HW,2013-10-13 04:57:00,
2013-10-12 22:02:00,70.2,35.4,29.96,NW,315,1.1,1.8,28,0.00,,,0.00,WUHU216HW,2013-10-13 05:02:00,
2013-10-12 22:07:00,70.2,35.4,29.96,NNW,338,1.8,1.8,28,0.00,,,0.00,WUHU216HW,2013-10-13 05:07:00,
2013-10-12 22:12:00,70.2,35.4,29.97,NNW,338,1.6,2.2,28,0.00,,,0.00,WUHU216HW,2013-10-13 05:12:00,
2013-10-12 22:17:00,70.2,35.4,29.97,NNW,338,0.2,2.2,28,0.00,,,0.00,WUHU216HW,2013-10-13 05:17:00,
2013-10-12 22:22:00,70.0,35.2,29.97,ENE,68,2.7,3.4,28,0.00,,,0.00,WUHU216HW,2013-10-13 05:22:00,
2013-10-12 22:27:00,69.3,34.6,29.97,East,90,3.1,4.3,28,0.00,,,0.00,WUHU216HW,2013-10-13 05:27:00,
2013-10-12 22:32:00,68.8,35.1,29.97,NE,45,2.0,4.3,29,0.00,,,0.00,WUHU216HW,2013-10-13 05:32:00,
2013-10-12 22:37:00,68.2,34.7,29.96,ENE,68,3.4,3.4,29,0.00,,,0.00,WUHU216HW,2013-10-13 05:37:00,
2013-10-12 22:42:00,67.9,34.3,29.97,East,90,2.5,4.0,29,0.00,,,0.00,WUHU216HW,2013-10-13 05:42:00,
2013-10-12 22:47:00,67.5,34.0,29.96,East,90,3.4,4.0,29,0.00,,,0.00,WUHU216HW,2013-10-13 05:47:00,
2013-10-12 22:52:00,67.3,34.9,29.96,ESE,113,2.7,4.5,30,0.00,,,0.00,WUHU216HW,2013-10-13 05:52:00,
2013-10-12 22:57:00,67.1,34.7,29.95,ESE,113,2.5,4.5,30,0.00,,,0.00,WUHU216HW,2013-10-13 05:57:00,
2013-10-12 23:02:00,67.0,34.6,29.95,East,90,2.0,4.3,30,0.00,,,0.00,WUHU216HW,2013-10-13 06:02:00,
2013-10-12 23:07:00,66.8,34.5,29.95,East,90,3.1,4.3,30,0.00,,,0.00,WUHU216HW,2013-10-13 06:07:00,
2013-10-12 23:12:00,66.4,34.2,29.95,ESE,113,2.5,4.3,30,0.00,,,0.00,WUHU216HW,2013-10-13 06:12:00,
2013-10-12 23:17:00,66.2,34.0,29.95,ESE,113,4.0,4.9,30,0.00,,,0.00,WUHU216HW,2013-10-13 06:17:00,
2013-10-12 23:22:00,66.1,34.6,29.96,East,90,4.5,6.5,31,0.00,,,0.00,WUHU216HW,2013-10-13 06:22:00,
2013-10-12 23:27:00,65.9,34.4,29.96,ENE,68,4.7,7.6,31,0.00,,,0.00,WUHU216HW,2013-10-13 06:27:00,
2013-10-12 23:32:00,65.9,35.1,29.96,East,90,4.5,7.6,32,0.00,,,0.00,WUHU216HW,2013-10-13 06:32:00,
2013-10-12 23:37:00,65.7,34.3,29.96,East,90,6.7,7.4,31,0.00,,,0.00,WUHU216HW,2013-10-13 06:37:00,
2013-10-12 23:42:00,65.5,34.1,29.96,East,90,4.7,7.4,31,0.00,,,0.00,WUHU216HW,2013-10-13 06:42:00,
2013-10-12 23:47:00,65.5,34.1,29.96,ESE,113,4.9,7.4,31,0.00,,,0.00,WUHU216HW,2013-10-13 06:47:00,
2013-10-12 23:52:00,65.3,33.9,29.96,East,90,5.1,6.9,31,0.00,,,0.00,WUHU216HW,2013-10-13 06:52:00,
2013-10-12 23:57:00,65.2,33.8,29.95,ESE,113,4.9,6.9,31,0.00,,,0.00,WUHU216HW,2013-10-13 06:57:00,